Terug naar catalogus

STARLINK-6371

ActiefCommunicatieVLEO
NORAD 57381·PAYLOAD·🇺🇸 United States

Gelanceerd Jul 16, 2023 vanaf Cape Canaveral Space Force Station

Loading…

Volgende Passages (komende 24 uur)

TLE

VersSource: CelesTrak SupGP

Epoch: Sep 15, 2026, 02:09 UTC

1 57381C 23099BF  26258.09006944 -.00026725  00000+0 -96819-3 0  2589
2 57381  42.9996 234.0616 0001345 266.1247 103.3688 15.27584788    13

Volg STARLINK-6371 in realtime met AllMySat

Download on the App Store